Volver al catálogo

STARLINK-5494

ActivoComunicacionesVLEO
NORAD 55650·PAYLOAD·🇺🇸 United States

Lanzado Feb 17, 2023 desde Vandenberg Space Force Base

Loading…

Próximos Pases (próximas 24 horas)

TLE

ActualizadoSource: CelesTrak SupGP

Época: Sep 14, 2026, 21:37 UTC

1 55650C 23021Y   26257.90118056  .00037803  00000+0  31686-2 0  2574
2 55650  70.0013  67.3719 0002603 272.8647  93.4895 14.98306399    15

Sigue STARLINK-5494 en tiempo real con AllMySat

Download on the App Store